Wind_Speed
13 13 13 12 12 11 12 11 10 10 10 10 10 10 10 10 10 10 9 9 9 9 9 9 8 8 8 8 8 7 7 6 6 5 5 5 6 6 6 6 6 6 5
14 14 14 13 13 13 12 12 11 10 11 11 10 10 11 11 11 11 11 10 10 10 10 10 10 10 10 10 9 9 8 8 8 7 7 7 7 8 8 8 8 7 7
15 14 15 15 14 14 13 13 13 12 11 11 11 11 11 11 12 12 12 12 12 12 12 12 11 11 11 11 11 10 10 10 9 9 9 10 9 9 9 9 9 9 9
16 16 16 16 16 15 15 14 14 13 13 13 13 13 12 13 13 13 13 13 13 13 13 13 13 12 12 13 12 12 12 12 11 11 11 11 11 11 11 11 11 10 10
17 17 17 17 17 17 17 16 16 15 15 14 14 14 14 14 15 15 14 14 15 15 15 15 14 14 14 14 14 14 14 14 14 13 13 13 13 12 12 12 12 12 11
18 19 19 18 19 19 18 18 18 18 17 16 16 15 16 16 16 16 16 16 16 15 16 16 15 15 15 15 15 15 15 15 15 15 15 15 15 14 14 14 13 13 13
19 20 20 20 20 20 19 19 20 19 19 18 17 17 17 17 17 17 18 18 17 17 16 17 17 17 17 16 16 16 16 16 16 16 16 16 16 16 15 15 15 15 15
20 21 21 21 21 21 21 20 20 20 20 19 19 19 18 19 18 18 18 18 18 18 18 17 17 18 18 18 18 18 18 18 18 18 18 18 17 17 17 17 16 16 16
22 22 22 22 22 22 22 22 22 22 22 21 21 21 21 20 19 19 19 19 19 19 19 19 18 18 19 19 19 20 20 20 20 20 19 19 19 19 18 18 18 18 18
23 23 23 23 23 23 23 23 24 24 24 23 23 23 22 22 21 21 20 21 21 21 21 21 21 20 20 21 21 21 21 22 21 21 21 21 21 20 20 20 20 20 19
25 25 25 25 25 26 26 26 25 26 26 25 25 25 25 24 24 24 23 23 23 24 24 24 23 22 22 22 22 22 22 23 23 22 22 22 22 22 22 21 21 21 21
26 27 27 28 28 28 28 28 27 27 27 27 27 27 26 26 25 25 25 25 25 25 26 26 26 25 24 24 23 23 24 24 25 24 24 24 24 24 24 23 23 23 23
28 28 29 29 30 30 30 29 29 29 29 29 29 28 28 28 27 27 27 27 27 27 28 28 28 27 27 27 26 26 26 25 26 26 25 26 26 26 26 26 25 25 25
29 30 30 31 31 31 31 31 31 31 32 31 31 31 30 30 30 30 29 29 29 29 29 30 30 30 30 29 29 29 28 28 27 27 28 28 28 28 28 28 28 28 28
30 31 31 32 32 33 33 33 33 33 33 34 33 33 33 32 32 32 32 31 31 30 31 31 32 32 32 32 31 31 31 30 30 29 29 29 30 30 30 30 30 31 31
31 31 32 33 33 33 34 34 34 35 35 35 36 35 35 35 35 34 34 34 33 33 33 33 34 34 34 34 33 33 33 33 33 32 31 32 32 32 32 32 32 33 33
32 33 34 34 34 35 36 36 36 37 38 38 38 38 38 38 38 37 38 37 37 36 36 36 37 37 36 36 36 35 35 35 35 35 34 34 34 34 33 34 34 34 35
34 35 35 36 37 37 37 38 38 39 39 40 40 41 41 41 41 41 41 41 40 40 40 40 39 39 40 39 38 38 38 37 38 37 37 36 36 36 36 35 36 36 37
36 36 37 38 38 38 39 40 41 41 42 43 43 44 44 45 44 43 43 43 43 43 43 42 42 42 42 42 41 41 40 40 39 39 39 39 39 39 39 39 38 39 39
38 38 39 39 40 40 41 43 44 44 45 45 46 47 47 47 47 47 46 47 47 46 46 45 45 45 45 45 45 44 43 43 43 42 42 42 42 42 42 42 41 41 41
39 39 40 41 42 43 43 44 45 46 47 47 48 48 50 50 50 50 50 50 50 50 50 49 49 49 49 49 49 47 47 46 46 46 45 44 45 45 45 45 44 44 44
39 40 41 42 43 44 45 46 47 47 49 49 50 50 51 52 53 53 52 53 53 53 53 53 53 53 53 53 53 52 51 50 49 49 49 48 47 48 48 48 48 47 47
39 41 41 43 44 46 47 47 48 48 50 51 51 52 52 54 54 54 54 54 55 55 55 56 57 57 56 56 56 56 55 54 53 52 52 52 51 51 51 51 51 51 50
41 42 43 44 45 47 48 48 49 50 51 52 52 53 54 54 55 56 56 56 56 57 57 58 59 59 59 59 59 58 58 58 57 55 54 54 55 54 54 54 53 53 53
42 43 44 44 46 47 49 49 49 50 52 53 53 53 54 55 55 56 56 57 58 59 60 60 61 61 61 60 60 59 59 59 60 59 58 56 56 56 56 56 56 55 55
41 42 44 45 46 47 48 49 50 51 52 53 54 54 55 55 56 56 57 58 59 61 61 61 61 62 62 61 61 61 60 60 60 61 61 59 58 57 57 58 58 57 57
Wind_Direction
251 252 253 255 255 257 259 259 260 255 252 252 250 248 247 248 250 253 255 257 258 256 256 256 257 259 259 259 254 251 251 248 244 244 244 242 242 241 241 242 240 240 241
252 253 254 256 256 255 257 259 262 260 256 254 253 253 251 250 250 252 255 256 257 256 256 255 254 257 258 258 256 255 256 255 251 249 249 249 249 248 248 249 247 247 246
252 254 255 256 257 256 256 258 261 262 258 257 258 257 257 253 252 253 256 257 257 257 258 257 256 257 257 258 257 257 257 255 253 253 252 251 252 252 253 254 252 251 251
253 255 255 255 255 256 256 256 257 259 258 258 259 259 260 258 257 257 258 259 260 259 259 258 257 259 259 258 256 256 256 256 256 255 256 255 253 254 255 256 255 256 255
254 254 254 255 255 255 256 256 255 256 257 258 259 260 262 263 261 260 259 260 261 261 260 260 259 260 261 259 257 256 257 256 256 255 255 256 255 255 256 256 256 257 257
254 252 253 255 255 256 257 257 257 256 257 259 260 261 262 263 263 262 261 261 262 262 261 260 260 260 261 261 259 258 258 257 257 256 255 255 256 257 257 257 256 257 257
255 252 252 254 255 255 256 257 257 258 257 258 260 260 262 263 263 262 261 261 261 261 260 259 259 261 261 261 261 260 259 258 257 257 256 255 256 258 258 258 257 255 256
256 255 255 255 255 256 256 257 257 257 256 257 258 259 261 263 263 263 261 260 261 261 261 260 259 259 259 260 261 261 261 259 257 257 256 255 256 257 258 259 258 257 257
257 257 257 258 257 257 257 257 256 256 256 256 257 258 260 261 262 262 262 260 260 261 261 261 261 261 259 260 260 261 261 260 259 259 257 256 256 257 258 258 258 257 257
258 258 257 258 259 258 256 256 255 255 255 256 257 258 259 260 261 262 263 261 260 260 262 262 263 263 262 262 262 261 260 259 260 259 259 257 257 257 257 258 257 257 257
259 258 258 258 259 258 257 256 256 255 255 256 257 258 258 259 260 260 261 263 261 261 261 262 264 264 264 264 263 263 261 260 259 260 259 258 257 257 257 258 258 258 257
260 261 260 259 259 259 258 257 256 256 255 255 255 257 258 259 260 261 262 263 263 262 262 263 264 264 265 265 263 263 263 262 260 260 259 258 258 259 258 258 258 258 257
263 263 262 260 260 260 259 258 257 256 255 255 255 256 258 259 259 261 262 263 265 265 264 264 264 264 265 266 265 264 264 264 262 261 261 260 260 260 259 258 257 258 258
264 265 264 262 261 259 259 259 259 257 256 256 255 256 257 259 260 261 262 264 265 266 265 264 265 265 265 266 266 266 266 265 264 263 262 262 261 260 260 259 257 257 257
265 265 264 262 261 259 258 259 259 258 257 257 256 256 257 258 259 262 262 264 265 266 267 266 265 265 265 265 266 266 266 265 265 264 263 263 262 261 260 259 258 257 256
265 265 265 263 262 260 260 261 260 260 259 260 259 258 258 259 260 261 263 264 265 266 267 267 266 265 266 266 265 265 266 266 266 265 264 264 263 262 260 259 258 257 256
265 266 265 264 262 261 261 262 261 261 261 261 261 259 259 259 261 261 263 265 265 266 266 267 267 266 265 265 265 265 264 265 265 265 264 264 263 262 261 260 259 258 257
265 266 266 265 263 262 263 263 263 263 263 263 261 261 259 260 262 262 263 264 265 266 266 267 266 266 265 265 265 265 264 264 264 264 264 263 262 262 262 261 260 259 258
266 267 267 266 264 264 264 264 264 265 264 264 263 262 261 261 262 262 263 264 265 266 266 266 266 266 266 265 265 265 264 264 264 264 263 262 261 261 261 262 261 260 259
268 268 268 267 266 266 265 265 266 266 265 265 265 263 262 262 262 263 263 263 264 265 266 266 267 266 266 265 265 264 264 264 263 264 263 262 262 261 260 261 261 260 259
270 270 269 268 268 267 267 267 267 266 266 266 266 266 264 263 263 263 262 263 264 265 266 266 266 267 267 266 265 264 264 265 264 264 264 263 263 262 261 260 259 259 259
273 273 271 269 269 268 268 268 267 267 267 266 266 266 266 265 264 264 264 265 265 265 265 266 266 267 266 266 265 264 263 263 263 263 263 263 263 263 262 261 260 260 259
274 274 274 271 270 270 270 269 268 268 268 267 267 266 266 266 265 264 264 265 266 266 266 266 266 267 266 266 266 266 265 263 262 262 262 263 263 263 262 262 261 260 259
275 276 276 274 272 271 271 269 269 268 268 267 267 266 266 266 266 265 265 265 267 267 267 267 267 267 267 266 266 266 266 265 264 261 261 262 262 261 261 261 260 259 259
277 277 277 276 275 273 271 270 269 269 269 268 268 268 267 267 268 268 267 266 267 268 268 268 268 268 267 266 265 265 265 265 264 263 261 261 261 261 260 260 260 259 258
279 279 278 278 277 276 274 272 271 271 270 269 268 268 269 269 269 269 269 268 268 269 268 269 268 268 267 266 265 264 264 264 264 264 262 261 260 260 259 259 259 258 257
Height
5834 5835 5835 5836 5836 5836 5837 5837 5838 5838 5839 5840 5841 5841 5842 5843 5844 5844 5845 5846 5846 5847 5848 5849 5850 5850 5851 5852 5852 5853 5854 5854 5855 5855 5856 5856 5857 5857 5858 5859 5859 5860 5860
5831 5832 5833 5833 5834 5834 5835 5835 5836 5836 5837 5838 5838 5839 5840 5841 5842 5842 5843 5844 5845 5845 5846 5847 5848 5849 5849 5850 5851 5851 5852 5853 5853 5854 5854 5855 5856 5856 5857 5857 5858 5858 5859
5828 5829 5830 5830 5831 5832 5832 5833 5834 5834 5835 5836 5836 5837 5838 5839 5839 5840 5841 5842 5842 5843 5844 5845 5846 5846 5847 5848 5849 5849 5850 5851 5852 5852 5853 5853 5854 5855 5855 5856 5856 5857 5857
5825 5826 5826 5827 5828 5829 5829 5830 5831 5832 5832 5833 5834 5835 5835 5836 5837 5838 5839 5839 5840 5841 5842 5842 5843 5844 5845 5846 5846 5847 5848 5849 5849 5850 5851 5852 5852 5853 5853 5854 5854 5855 5856
5821 5822 5823 5824 5825 5825 5826 5827 5828 5829 5830 5830 5831 5832 5833 5834 5834 5835 5836 5837 5838 5838 5839 5840 5841 5842 5842 5843 5844 5845 5845 5846 5847 5848 5848 5849 5850 5850 5851 5852 5852 5853 5853
5817 5818 5819 5820 5821 5822 5823 5824 5825 5826 5827 5827 5828 5829 5830 5831 5831 5832 5833 5834 5835 5835 5836 5837 5838 5839 5840 5840 5841 5842 5842 5843 5844 5845 5846 5847 5847 5848 5848 5849 5850 5850 5851
5813 5814 5815 5816 5817 5818 5819 5820 5821 5822 5823 5824 5825 5825 5826 5827 5828 5829 5830 5830 5831 5832 5833 5834 5835 5836 5836 5837 5838 5838 5839 5840 5841 5842 5843 5843 5844 5845 5846 5846 5847 5848 5848
5809 5810 5810 5811 5812 5813 5814 5815 5817 5818 5819 5820 5821 5821 5822 5823 5824 5825 5826 5827 5828 5829 5829 5830 5831 5832 5833 5834 5834 5835 5836 5837 5838 5838 5839 5840 5841 5842 5842 5843 5844 5844 5845
5804 5805 5806 5806 5807 5809 5810 5811 5812 5813 5814 5815 5816 5817 5818 5819 5820 5821 5822 5823 5824 5825 5826 5826 5827 5828 5829 5830 5831 5831 5832 5833 5834 5835 5835 5836 5837 5838 5839 5839 5840 5841 5842
5799 5800 5801 5801 5802 5803 5804 5805 5806 5808 5809 5810 5811 5812 5813 5815 5816 5817 5818 5819 5819 5820 5821 5822 5823 5824 5825 5826 5826 5827 5828 5828 5829 5830 5831 5832 5833 5834 5835 5835 5836 5837 5838
5793 5794 5795 5796 5797 5797 5798 5799 5800 5802 5803 5804 5806 5807 5808 5810 5811 5812 5813 5814 5815 5816 5816 5817 5818 5819 5820 5821 5822 5822 5823 5824 5825 5826 5826 5827 5828 5829 5830 5831 5832 5833 5834
5787 5788 5789 5790 5790 5791 5792 5793 5794 5795 5797 5798 5800 5801 5803 5804 5805 5806 5807 5808 5809 5810 5811 5812 5813 5814 5815 5816 5817 5817 5818 5819 5819 5820 5821 5822 5823 5824 5825 5826 5827 5828 5829
5781 5781 5782 5783 5784 5784 5785 5786 5787 5788 5790 5792 5793 5795 5796 5798 5799 5800 5801 5802 5803 5804 5805 5806 5807 5808 5809 5810 5811 5812 5812 5813 5814 5815 5815 5816 5817 5818 5820 5821 5822 5823 5824
5774 5774 5775 5775 5776 5777 5778 5779 5780 5781 5782 5784 5786 5788 5789 5791 5792 5793 5795 5796 5797 5798 5799 5800 5801 5802 5803 5804 5804 5805 5806 5807 5808 5809 5809 5810 5811 5812 5813 5814 5816 5817 5818
5767 5767 5767 5768 5768 5769 5771 5772 5773 5774 5775 5776 5778 5779 5781 5783 5784 5786 5787 5788 5790 5791 5792 5793 5793 5794 5795 5796 5797 5798 5799 5800 5801 5802 5803 5804 5805 5806 5807 5808 5809 5810 5811
5759 5759 5759 5760 5761 5762 5763 5764 5765 5765 5766 5767 5769 5771 5773 5774 5776 5777 5779 5780 5782 5783 5784 5785 5785 5786 5787 5788 5789 5790 5791 5792 5793 5794 5795 5796 5797 5798 5799 5800 5802 5803 5804
5751 5751 5751 5752 5752 5753 5754 5755 5756 5757 5757 5759 5760 5762 5764 5765 5767 5768 5770 5771 5773 5774 5775 5776 5777 5777 5778 5780 5781 5782 5783 5784 5785 5786 5787 5788 5789 5790 5791 5792 5793 5795 5796
5742 5743 5743 5743 5744 5744 5745 5746 5746 5747 5748 5749 5750 5752 5753 5755 5757 5758 5760 5761 5763 5764 5765 5766 5767 5768 5769 5770 5771 5772 5773 5774 5775 5776 5778 5779 5780 5781 5782 5783 5784 5786 5787
5733 5733 5733 5733 5734 5735 5735 5736 5736 5737 5738 5738 5739 5741 5742 5744 5746 5747 5749 5751 5752 5753 5754 5755 5757 5758 5759 5760 5761 5762 5763 5764 5765 5766 5767 5768 5770 5771 5772 5774 5775 5776 5778
5724 5724 5724 5723 5724 5724 5725 5725 5726 5726 5727 5727 5728 5729 5730 5732 5734 5735 5737 5739 5740 5741 5742 5744 5745 5746 5747 5748 5749 5751 5752 5753 5754 5755 5756 5757 5759 5760 5762 5763 5764 5766 5768
5714 5714 5713 5713 5713 5713 5714 5714 5714 5715 5715 5715 5716 5716 5717 5719 5721 5722 5724 5726 5727 5729 5730 5731 5732 5733 5734 5735 5736 5738 5740 5740 5742 5743 5744 5746 5747 5749 5750 5751 5753 5754 5756
5704 5703 5703 5702 5702 5702 5702 5702 5702 5702 5703 5703 5703 5703 5704 5705 5707 5708 5710 5711 5713 5715 5716 5716 5717 5719 5720 5720 5722 5724 5726 5729 5729 5730 5731 5732 5734 5736 5737 5738 5740 5742 5744
5693 5692 5692 5691 5690 5690 5689 5689 5689 5689 5689 5690 5690 5690 5690 5691 5692 5694 5695 5696 5698 5699 5700 5701 5702 5703 5704 5705 5706 5708 5710 5713 5716 5718 5718 5719 5720 5721 5723 5725 5726 5728 5730
5682 5681 5680 5679 5678 5677 5676 5676 5676 5676 5676 5676 5676 5676 5676 5677 5678 5679 5680 5681 5682 5683 5683 5684 5685 5686 5687 5689 5689 5690 5692 5694 5697 5702 5704 5704 5705 5706 5708 5710 5711 5713 5715
5672 5670 5668 5667 5665 5664 5663 5663 5662 5662 5662 5661 5661 5661 5662 5662 5662 5663 5664 5664 5665 5665 5666 5666 5667 5668 5669 5670 5672 5673 5674 5676 5678 5681 5686 5689 5689 5690 5692 5693 5695 5697 5699
5661 5659 5657 5655 5653 5652 5650 5649 5649 5648 5648 5647 5647 5647 5647 5647 5647 5647 5647 5647 5647 5648 5648 5648 5649 5649 5650 5652 5653 5655 5657 5658 5660 5662 5665 5669 5673 5675 5675 5677 5678 5681 5683